Home > Weather > Koszalin > Past weeks

Flag for Poland Past Weather in Koszalin, Poland — Yesterday and Last 2 Weeks

Now
59 °F

Fog.


Feels Like: 59 °F
Forecast: 62 / 78 °F
Wind: 1 mph from Northeast

Location: Koszalin

Current Time: Jul 24, 2016 at 3:14:57 AM

Latest Report: Jul 24, 2016 at 2:00 AM


Visibility: 3 mi

Pressure: 30.14 "Hg

Humidity: 97%

Dew Point: 58 °F

Location of KoszalinLocation

Past Weather in Koszalin — Graph

°F

Koszalin Temperature Yesterday

Maximum temperature yesterday: 71 °F (at 4:00 PM)
Minimum temperature yesterday: 58 °F (at 2:00 AM)
Average temperature yesterday: 65 °F

High & Low Weather Summary for the Past Weeks

 TemperatureHumidityPressure
High79 °F (Jul 11, 1:00 PM)98% (Jul 20, 5:00 AM)30.19 "Hg (Jul 20, 5:00 AM)
Low52 °F (Jul 22, 6:00 AM)41% (Jul 21, 5:00 PM)29.68 "Hg (Jul 11, 6:00 AM)
Average64 °F80%29.98 "Hg
* Reported Jul 9 1:00 AM — Jul 24 1:00 AM, Koszalin, Weather by CustomWeather, © 2016

Note: Actual official high and low records may vary slightly from our data, if they occured in-between our weather recording intervals... More about our weather records

Advertising

Koszalin Weather History for the Previous 24 Hours

Scroll right to see more
 ConditionsComfort  
Time TempWeatherWind HumidityBarometerVisibility
1:00 AM
Sun, Jul 24
60 °FFog.No wind97%30.14 "Hg3 mi
12:00 AM60 °FOvercast.1 mph94%30.14 "Hg6 mi
11:00 PM
Sat, Jul 23
62 °FOvercast.1 mph90%30.13 "Hg7 mi
10:00 PM64 °FOvercast.1 mph85%30.14 "Hg6 mi
9:00 PM66 °FOvercast.1 mph79%30.13 "Hg18 mi
8:00 PM68 °FOvercast.2 mph78%30.13 "Hg19 mi
7:00 PM69 °FOvercast.2 mph76%30.13 "Hg25 mi
6:00 PM70 °FOvercast.3 mph69%30.13 "Hg22 mi
5:00 PM71 °FOvercast.2 mph69%30.14 "Hg15 mi
4:00 PM71 °FOvercast.1 mph69%30.15 "Hg18 mi
3:00 PM70 °FOvercast.2 mph69%30.15 "Hg19 mi
2:00 PM69 °FOvercast.2 mph71%30.15 "Hg18 mi
1:00 PM68 °FOvercast.2 mph78%30.15 "Hg22 mi
12:00 PM68 °FOvercast.2 mph78%30.15 "Hg19 mi
11:00 AM69 °FOvercast.2 mph73%30.14 "Hg18 mi
10:00 AM69 °FOvercast.1 mph68%30.13 "Hg14 mi
9:00 AM69 °FPartly sunny.2 mph70%30.13 "Hg14 mi
8:00 AM67 °FOvercast.2 mph76%30.12 "Hg16 mi
7:00 AM63 °FOvercast.No wind94%30.12 "Hg22 mi
6:00 AM62 °FOvercast.No wind96%30.12 "Hg10 mi
5:00 AM61 °FOvercast.No wind97%30.12 "Hg11 mi
4:00 AM59 °FOvercast.No wind98%30.11 "Hg11 mi
3:00 AM58 °FFog.1 mph97%30.11 "Hg2 mi
Weather by CustomWeather, © 2016

See weather overviewHow to use our weather pages